sat.trackr.live / text

‹ back to catalog

STARLINK-30379

NORAD 57811 · 2023-138D

PAYLOAD ACTIVE UNKNOWN

§ Identity

Operator
Country
US
Launch date
2023-09-09
Launch site
AFETR
Launch vehicle
Mass (kg)
RCS (m²)

Purposes: comms

External: N2YO · Heavens-Above · Gunter

§ Orbital elements

Epoch: 2026-05-25T00:39:20.481696Z

Period
94.27 min
Inclination
43.0032°
Eccentricity
0.0001185
Mean motion
15.27601235 rev/d
Perigee alt
482.2 km
Apogee alt
483.8 km
Semi-major
6,861.1 km
B*
1.0626e-4
RAAN
163.0270°
Arg perigee
255.6261°
Mean anomaly
104.4459°
Rev number
15,041

§ Raw data

STARLINK-303791 57811U 23138D   26145.02732039  .00002665  00000+0  10626-3 0  99992 57811  43.0032 163.0270 0001185 255.6261 104.4459 15.27601235150417

JSON: /api/v1/satellites/57811 · /tle

For live sub-satellite position, see the globe view (requires WebGL).

§ Visibility from observer

Set your observer location to see the next 7 days of passes ≥ 10°. The values pass through the URL so the page stays shareable.

No JS? Fill the form by hand. The geolocation button needs JavaScript.